<?xml version="1.0" encoding="UTF-8" standalone="no" ?><gpx xmlns="http://www.topografix.com/GPX/1/1" xmlns:gpxx="http://www.garmin.com/xmlschemas/GpxExtensions/v3" xmlns:wptx1="http://www.garmin.com/xmlschemas/WaypointExtension/v1" xmlns:gpxtpx="http://www.garmin.com/xmlschemas/TrackPointExtension/v1" creator="GuideVTT.com" version="1.1" xmlns:xsi="http://www.w3.org/2001/XMLSchema-instance" xsi:schemaLocation="http://www.topografix.com/GPX/1/1 http://www.topografix.com/GPX/1/1/gpx.xsd http://www.garmin.com/xmlschemas/GpxExtensions/v3 http://www8.garmin.com/xmlschemas/GpxExtensionsv3.xsd http://www.garmin.com/xmlschemas/WaypointExtension/v1 http://www8.garmin.com/xmlschemas/WaypointExtensionv1.xsd http://www.garmin.com/xmlschemas/TrackPointExtension/v1 http://www.garmin.com/xmlschemas/TrackPointExtensionv1.xsd">
<metadata><link href="http://www.garmin.com"><text>Garmin International</text></link><time>2013-06-22T15:13:50Z</time></metadata>
<trk><name>grc_lat-long.gpx</name><extensions><gpxx:TrackExtension><gpxx:DisplayColor>Cyan</gpxx:DisplayColor></gpxx:TrackExtension></extensions><trkseg>
<trkpt lat="46.09553223" lon="7.22921957"><ele>1498</ele><time>1990-01-01T00:00:00Z</time></trkpt>
<trkpt lat="46.09982097" lon="7.22990010"><ele>1540</ele><time>1990-01-01T00:00:00Z</time></trkpt>
<trkpt lat="46.10203450" lon="7.22808940"><ele>1558</ele><time>1990-01-01T00:00:00Z</time></trkpt>
<trkpt lat="46.10321453" lon="7.22503967"><ele>1570</ele><time>1990-01-01T00:00:00Z</time></trkpt>
<trkpt lat="46.10339356" lon="7.22620037"><ele>1595</ele><time>1990-01-01T00:00:00Z</time></trkpt>
<trkpt lat="46.10592449" lon="7.22867025"><ele>1630</ele><time>1990-01-01T00:00:00Z</time></trkpt>
<trkpt lat="46.10766602" lon="7.23243002"><ele>1662</ele><time>1990-01-01T00:00:00Z</time></trkpt>
<trkpt lat="46.10697428" lon="7.23441975"><ele>1664</ele><time>1990-01-01T00:00:00Z</time></trkpt>
<trkpt lat="46.10714518" lon="7.23580933"><ele>1671</ele><time>1990-01-01T00:00:00Z</time></trkpt>
<trkpt lat="46.10345052" lon="7.24043987"><ele>1735</ele><time>1990-01-01T00:00:00Z</time></trkpt>
<trkpt lat="46.10129395" lon="7.24200948"><ele>1745</ele><time>1990-01-01T00:00:00Z</time></trkpt>
<trkpt lat="46.10201010" lon="7.24199015"><ele>1758</ele><time>1990-01-01T00:00:00Z</time></trkpt>
<trkpt lat="46.11021322" lon="7.24011027"><ele>1873</ele><time>1990-01-01T00:00:00Z</time></trkpt>
<trkpt lat="46.11355795" lon="7.23769023"><ele>1904</ele><time>1990-01-01T00:00:00Z</time></trkpt>
<trkpt lat="46.11464843" lon="7.23544922"><ele>1908</ele><time>1990-01-01T00:00:00Z</time></trkpt>
<trkpt lat="46.11608073" lon="7.23423970"><ele>1941</ele><time>1990-01-01T00:00:00Z</time></trkpt>
<trkpt lat="46.11634115" lon="7.23040975"><ele>1984</ele><time>1990-01-01T00:00:00Z</time></trkpt>
<trkpt lat="46.11459962" lon="7.22224020"><ele>2048</ele><time>1990-01-01T00:00:00Z</time></trkpt>
<trkpt lat="46.11643068" lon="7.22590027"><ele>2072</ele><time>1990-01-01T00:00:00Z</time></trkpt>
<trkpt lat="46.11868490" lon="7.22627970"><ele>2128</ele><time>1990-01-01T00:00:00Z</time></trkpt>
<trkpt lat="46.12153320" lon="7.23245037"><ele>2164</ele><time>1990-01-01T00:00:00Z</time></trkpt>
<trkpt lat="46.12482097" lon="7.23164978"><ele>2155</ele><time>1990-01-01T00:00:00Z</time></trkpt>
<trkpt lat="46.12412923" lon="7.23387045"><ele>2135</ele><time>1990-01-01T00:00:00Z</time></trkpt>
<trkpt lat="46.13041178" lon="7.22880045"><ele>2068</ele><time>1990-01-01T00:00:00Z</time></trkpt>
<trkpt lat="46.12835287" lon="7.23569947"><ele>2013</ele><time>1990-01-01T00:00:00Z</time></trkpt>
<trkpt lat="46.13303224" lon="7.23103027"><ele>1973</ele><time>1990-01-01T00:00:00Z</time></trkpt>
<trkpt lat="46.13228353" lon="7.23569030"><ele>1935</ele><time>1990-01-01T00:00:00Z</time></trkpt>
<trkpt lat="46.12954102" lon="7.24005942"><ele>1916</ele><time>1990-01-01T00:00:00Z</time></trkpt>
<trkpt lat="46.13282063" lon="7.23868917"><ele>1881</ele><time>1990-01-01T00:00:00Z</time></trkpt>
<trkpt lat="46.13387045" lon="7.23854065"><ele>1865</ele><time>1990-01-01T00:00:00Z</time></trkpt>
<trkpt lat="46.13527018" lon="7.23605957"><ele>1842</ele><time>1990-01-01T00:00:00Z</time></trkpt>
<trkpt lat="46.13522948" lon="7.23837992"><ele>1819</ele><time>1990-01-01T00:00:00Z</time></trkpt>
<trkpt lat="46.13407390" lon="7.24119975"><ele>1787</ele><time>1990-01-01T00:00:00Z</time></trkpt>
<trkpt lat="46.13207193" lon="7.24264933"><ele>1776</ele><time>1990-01-01T00:00:00Z</time></trkpt>
<trkpt lat="46.13142090" lon="7.24730022"><ele>1743</ele><time>1990-01-01T00:00:00Z</time></trkpt>
<trkpt lat="46.13266602" lon="7.24449057"><ele>1763</ele><time>1990-01-01T00:00:00Z</time></trkpt>
<trkpt lat="46.13369956" lon="7.24365032"><ele>1712</ele><time>1990-01-01T00:00:00Z</time></trkpt>
<trkpt lat="46.13554688" lon="7.24359030"><ele>1686</ele><time>1990-01-01T00:00:00Z</time></trkpt>
<trkpt lat="46.13840332" lon="7.23967997"><ele>1657</ele><time>1990-01-01T00:00:00Z</time></trkpt>
<trkpt lat="46.14010417" lon="7.23591003"><ele>1637</ele><time>1990-01-01T00:00:00Z</time></trkpt>
<trkpt lat="46.13914388" lon="7.24138997"><ele>1591</ele><time>1990-01-01T00:00:00Z</time></trkpt>
<trkpt lat="46.14134928" lon="7.23794963"><ele>1581</ele><time>1990-01-01T00:00:00Z</time></trkpt>
<trkpt lat="46.14258627" lon="7.23456013"><ele>1559</ele><time>1990-01-01T00:00:00Z</time></trkpt>
<trkpt lat="46.14577637" lon="7.23258972"><ele>1531</ele><time>1990-01-01T00:00:00Z</time></trkpt>
<trkpt lat="46.14231772" lon="7.24360962"><ele>1488</ele><time>1990-01-01T00:00:00Z</time></trkpt>
<trkpt lat="46.14074707" lon="7.24655965"><ele>1496</ele><time>1990-01-01T00:00:00Z</time></trkpt>
<trkpt lat="46.13621420" lon="7.24993998"><ele>1514</ele><time>1990-01-01T00:00:00Z</time></trkpt>
<trkpt lat="46.14042968" lon="7.25177002"><ele>1489</ele><time>1990-01-01T00:00:00Z</time></trkpt>
<trkpt lat="46.14673665" lon="7.25285035"><ele>1392</ele><time>1990-01-01T00:00:00Z</time></trkpt>
<trkpt lat="46.14790038" lon="7.26058960"><ele>1306</ele><time>1990-01-01T00:00:00Z</time></trkpt>
<trkpt lat="46.14687500" lon="7.26259053"><ele>1314</ele><time>1990-01-01T00:00:00Z</time></trkpt>
<trkpt lat="46.14729003" lon="7.26327007"><ele>1331</ele><time>1990-01-01T00:00:00Z</time></trkpt>
<trkpt lat="46.15078125" lon="7.25921020"><ele>1256</ele><time>1990-01-01T00:00:00Z</time></trkpt>
<trkpt lat="46.15254720" lon="7.25927022"><ele>1323</ele><time>1990-01-01T00:00:00Z</time></trkpt>
<trkpt lat="46.15275878" lon="7.25729980"><ele>1263</ele><time>1990-01-01T00:00:00Z</time></trkpt>
<trkpt lat="46.15390625" lon="7.25840963"><ele>1310</ele><time>1990-01-01T00:00:00Z</time></trkpt>
<trkpt lat="46.15837402" lon="7.25456950"><ele>1405</ele><time>1990-01-01T00:00:00Z</time></trkpt>
<trkpt lat="46.15896810" lon="7.25246988"><ele>1398</ele><time>1990-01-01T00:00:00Z</time></trkpt>
<trkpt lat="46.16227213" lon="7.25189005"><ele>1409</ele><time>1990-01-01T00:00:00Z</time></trkpt>
<trkpt lat="46.16417643" lon="7.25032958"><ele>1421</ele><time>1990-01-01T00:00:00Z</time></trkpt>
<trkpt lat="46.16923828" lon="7.25480957"><ele>1499</ele><time>1990-01-01T00:00:00Z</time></trkpt>
<trkpt lat="46.17255045" lon="7.26595052"><ele>1551</ele><time>1990-01-01T00:00:00Z</time></trkpt>
<trkpt lat="46.17245280" lon="7.28033040"><ele>1623</ele><time>1990-01-01T00:00:00Z</time></trkpt>
<trkpt lat="46.17262370" lon="7.28161010"><ele>1628</ele><time>1990-01-01T00:00:00Z</time></trkpt>
<trkpt lat="46.17167968" lon="7.28279012"><ele>1643</ele><time>1990-01-01T00:00:00Z</time></trkpt>
<trkpt lat="46.17208658" lon="7.28846943"><ele>1678</ele><time>1990-01-01T00:00:00Z</time></trkpt>
<trkpt lat="46.17416992" lon="7.28747050"><ele>1569</ele><time>1990-01-01T00:00:00Z</time></trkpt>
<trkpt lat="46.17605796" lon="7.29007975"><ele>1508</ele><time>1990-01-01T00:00:00Z</time></trkpt>
<trkpt lat="46.18037110" lon="7.29261068"><ele>1387</ele><time>1990-01-01T00:00:00Z</time></trkpt>
<trkpt lat="46.18079427" lon="7.29364013"><ele>1361</ele><time>1990-01-01T00:00:00Z</time></trkpt>
<trkpt lat="46.17960612" lon="7.29507040"><ele>1381</ele><time>1990-01-01T00:00:00Z</time></trkpt>
<trkpt lat="46.17852377" lon="7.29869995"><ele>1438</ele><time>1990-01-01T00:00:00Z</time></trkpt>
<trkpt lat="46.17902832" lon="7.30551962"><ele>1427</ele><time>1990-01-01T00:00:00Z</time></trkpt>
<trkpt lat="46.17950847" lon="7.30494080"><ele>1428</ele><time>1990-01-01T00:00:00Z</time></trkpt>
<trkpt lat="46.18001302" lon="7.30665995"><ele>1375</ele><time>1990-01-01T00:00:00Z</time></trkpt>
<trkpt lat="46.18048503" lon="7.30594075"><ele>1376</ele><time>1990-01-01T00:00:00Z</time></trkpt>
<trkpt lat="46.18131510" lon="7.30834962"><ele>1320</ele><time>1990-01-01T00:00:00Z</time></trkpt>
<trkpt lat="46.18122559" lon="7.31172993"><ele>1301</ele><time>1990-01-01T00:00:00Z</time></trkpt>
<trkpt lat="46.17981772" lon="7.31559042"><ele>1267</ele><time>1990-01-01T00:00:00Z</time></trkpt>
<trkpt lat="46.17398276" lon="7.31796977"><ele>1245</ele><time>1990-01-01T00:00:00Z</time></trkpt>
<trkpt lat="46.16585287" lon="7.31903992"><ele>1256</ele><time>1990-01-01T00:00:00Z</time></trkpt>
<trkpt lat="46.16667480" lon="7.32018025"><ele>1260</ele><time>1990-01-01T00:00:00Z</time></trkpt>
<trkpt lat="46.16780599" lon="7.31968078"><ele>1243</ele><time>1990-01-01T00:00:00Z</time></trkpt>
<trkpt lat="46.16989747" lon="7.32495015"><ele>1249</ele><time>1990-01-01T00:00:00Z</time></trkpt>
<trkpt lat="46.17193197" lon="7.32708943"><ele>1303</ele><time>1990-01-01T00:00:00Z</time></trkpt>
<trkpt lat="46.17304688" lon="7.33168945"><ele>1337</ele><time>1990-01-01T00:00:00Z</time></trkpt>
<trkpt lat="46.17384440" lon="7.33085022"><ele>1338</ele><time>1990-01-01T00:00:00Z</time></trkpt>
<trkpt lat="46.17618815" lon="7.33147990"><ele>1329</ele><time>1990-01-01T00:00:00Z</time></trkpt>
<trkpt lat="46.17855632" lon="7.33408000"><ele>1365</ele><time>1990-01-01T00:00:00Z</time></trkpt>
<trkpt lat="46.17826335" lon="7.34140015"><ele>1416</ele><time>1990-01-01T00:00:00Z</time></trkpt>
<trkpt lat="46.17564290" lon="7.34959005"><ele>1525</ele><time>1990-01-01T00:00:00Z</time></trkpt>
<trkpt lat="46.17958170" lon="7.34877015"><ele>1474</ele><time>1990-01-01T00:00:00Z</time></trkpt>
<trkpt lat="46.18613283" lon="7.33883972"><ele>1379</ele><time>1990-01-01T00:00:00Z</time></trkpt>
<trkpt lat="46.18884277" lon="7.33747965"><ele>1347</ele><time>1990-01-01T00:00:00Z</time></trkpt>
<trkpt lat="46.18601073" lon="7.33651022"><ele>1291</ele><time>1990-01-01T00:00:00Z</time></trkpt>
<trkpt lat="46.18994956" lon="7.33582052"><ele>1251</ele><time>1990-01-01T00:00:00Z</time></trkpt>
<trkpt lat="46.19097493" lon="7.33485922"><ele>1244</ele><time>1990-01-01T00:00:00Z</time></trkpt>
<trkpt lat="46.19444987" lon="7.33510030"><ele>1264</ele><time>1990-01-01T00:00:00Z</time></trkpt>
<trkpt lat="46.19689942" lon="7.34349060"><ele>1308</ele><time>1990-01-01T00:00:00Z</time></trkpt>
<trkpt lat="46.19589843" lon="7.34596048"><ele>1365</ele><time>1990-01-01T00:00:00Z</time></trkpt>
<trkpt lat="46.19644368" lon="7.34978027"><ele>1390</ele><time>1990-01-01T00:00:00Z</time></trkpt>
<trkpt lat="46.19910483" lon="7.35631002"><ele>1380</ele><time>1990-01-01T00:00:00Z</time></trkpt>
<trkpt lat="46.19840495" lon="7.35782980"><ele>1370</ele><time>1990-01-01T00:00:00Z</time></trkpt>
<trkpt lat="46.20201010" lon="7.36713968"><ele>1339</ele><time>1990-01-01T00:00:00Z</time></trkpt>
<trkpt lat="46.20212402" lon="7.36979065"><ele>1362</ele><time>1990-01-01T00:00:00Z</time></trkpt>
<trkpt lat="46.19922689" lon="7.36477967"><ele>1437</ele><time>1990-01-01T00:00:00Z</time></trkpt>
<trkpt lat="46.19983723" lon="7.36789042"><ele>1446</ele><time>1990-01-01T00:00:00Z</time></trkpt>
<trkpt lat="46.19980468" lon="7.37184042"><ele>1473</ele><time>1990-01-01T00:00:00Z</time></trkpt>
<trkpt lat="46.19904786" lon="7.37545065"><ele>1507</ele><time>1990-01-01T00:00:00Z</time></trkpt>
<trkpt lat="46.19704590" lon="7.36971028"><ele>1542</ele><time>1990-01-01T00:00:00Z</time></trkpt>
<trkpt lat="46.19518230" lon="7.36837972"><ele>1612</ele><time>1990-01-01T00:00:00Z</time></trkpt>
<trkpt lat="46.19480796" lon="7.36501973"><ele>1588</ele><time>1990-01-01T00:00:00Z</time></trkpt>
<trkpt lat="46.19217938" lon="7.35662943"><ele>1637</ele><time>1990-01-01T00:00:00Z</time></trkpt>
<trkpt lat="46.19222818" lon="7.35466003"><ele>1626</ele><time>1990-01-01T00:00:00Z</time></trkpt>
<trkpt lat="46.19166667" lon="7.35374043"><ele>1663</ele><time>1990-01-01T00:00:00Z</time></trkpt>
<trkpt lat="46.19099123" lon="7.35782980"><ele>1730</ele><time>1990-01-01T00:00:00Z</time></trkpt>
<trkpt lat="46.19148763" lon="7.36442973"><ele>1735</ele><time>1990-01-01T00:00:00Z</time></trkpt>
<trkpt lat="46.19044597" lon="7.37581990"><ele>1837</ele><time>1990-01-01T00:00:00Z</time></trkpt>
<trkpt lat="46.19189453" lon="7.38088990"><ele>1789</ele><time>1990-01-01T00:00:00Z</time></trkpt>
<trkpt lat="46.18975423" lon="7.38420003"><ele>1774</ele><time>1990-01-01T00:00:00Z</time></trkpt>
<trkpt lat="46.18567708" lon="7.38605957"><ele>1798</ele><time>1990-01-01T00:00:00Z</time></trkpt>
<trkpt lat="46.17875977" lon="7.38672993"><ele>1776</ele><time>1990-01-01T00:00:00Z</time></trkpt>
<trkpt lat="46.17724610" lon="7.38839010"><ele>1762</ele><time>1990-01-01T00:00:00Z</time></trkpt>
<trkpt lat="46.18152670" lon="7.38942057"><ele>1707</ele><time>1990-01-01T00:00:00Z</time></trkpt>
<trkpt lat="46.17615560" lon="7.39097900"><ele>1648</ele><time>1990-01-01T00:00:00Z</time></trkpt>
<trkpt lat="46.18191732" lon="7.39415995"><ele>1581</ele><time>1990-01-01T00:00:00Z</time></trkpt>
<trkpt lat="46.17813313" lon="7.39405008"><ele>1531</ele><time>1990-01-01T00:00:00Z</time></trkpt>
<trkpt lat="46.18018392" lon="7.39607952"><ele>1498</ele><time>1990-01-01T00:00:00Z</time></trkpt>
<trkpt lat="46.17864583" lon="7.39601033"><ele>1476</ele><time>1990-01-01T00:00:00Z</time></trkpt>
<trkpt lat="46.16486003" lon="7.38957012"><ele>1424</ele><time>1990-01-01T00:00:00Z</time></trkpt>
<trkpt lat="46.16228842" lon="7.39033000"><ele>1435</ele><time>1990-01-01T00:00:00Z</time></trkpt>
<trkpt lat="46.16088053" lon="7.38758952"><ele>1450</ele><time>1990-01-01T00:00:00Z</time></trkpt>
<trkpt lat="46.16281738" lon="7.38788045"><ele>1480</ele><time>1990-01-01T00:00:00Z</time></trkpt>
<trkpt lat="46.16158040" lon="7.38571980"><ele>1534</ele><time>1990-01-01T00:00:00Z</time></trkpt>
<trkpt lat="46.15900878" lon="7.38579000"><ele>1494</ele><time>1990-01-01T00:00:00Z</time></trkpt>
<trkpt lat="46.15794272" lon="7.38454997"><ele>1519</ele><time>1990-01-01T00:00:00Z</time></trkpt>
<trkpt lat="46.15667318" lon="7.38563028"><ele>1503</ele><time>1990-01-01T00:00:00Z</time></trkpt>
<trkpt lat="46.15231120" lon="7.38518067"><ele>1500</ele><time>1990-01-01T00:00:00Z</time></trkpt>
<trkpt lat="46.14829103" lon="7.38575032"><ele>1511</ele><time>1990-01-01T00:00:00Z</time></trkpt>
<trkpt lat="46.14690755" lon="7.38523052"><ele>1605</ele><time>1990-01-01T00:00:00Z</time></trkpt>
<trkpt lat="46.14115397" lon="7.38806050"><ele>1488</ele><time>1990-01-01T00:00:00Z</time></trkpt>
<trkpt lat="46.13437500" lon="7.38802998"><ele>1527</ele><time>1990-01-01T00:00:00Z</time></trkpt>
<trkpt lat="46.12885742" lon="7.39084982"><ele>1550</ele><time>1990-01-01T00:00:00Z</time></trkpt>
<trkpt lat="46.13409017" lon="7.39578958"><ele>1603</ele><time>1990-01-01T00:00:00Z</time></trkpt>
<trkpt lat="46.12801920" lon="7.39388022"><ele>1639</ele><time>1990-01-01T00:00:00Z</time></trkpt>
<trkpt lat="46.12490235" lon="7.39572042"><ele>1687</ele><time>1990-01-01T00:00:00Z</time></trkpt>
<trkpt lat="46.12845053" lon="7.39606933"><ele>1698</ele><time>1990-01-01T00:00:00Z</time></trkpt>
<trkpt lat="46.13033855" lon="7.39820963"><ele>1740</ele><time>1990-01-01T00:00:00Z</time></trkpt>
<trkpt lat="46.13277995" lon="7.40033977"><ele>1780</ele><time>1990-01-01T00:00:00Z</time></trkpt>
<trkpt lat="46.13011068" lon="7.39949952"><ele>1794</ele><time>1990-01-01T00:00:00Z</time></trkpt>
<trkpt lat="46.12609050" lon="7.40019938"><ele>1858</ele><time>1990-01-01T00:00:00Z</time></trkpt>
<trkpt lat="46.12250164" lon="7.40216065"><ele>1873</ele><time>1990-01-01T00:00:00Z</time></trkpt>
<trkpt lat="46.12799481" lon="7.40455017"><ele>1954</ele><time>1990-01-01T00:00:00Z</time></trkpt>
<trkpt lat="46.12929688" lon="7.40369975"><ele>1943</ele><time>1990-01-01T00:00:00Z</time></trkpt>
<trkpt lat="46.12936198" lon="7.40404053"><ele>1943</ele><time>1990-01-01T00:00:00Z</time></trkpt>
<trkpt lat="46.12770182" lon="7.40571085"><ele>1958</ele><time>1990-01-01T00:00:00Z</time></trkpt>
<trkpt lat="46.12875978" lon="7.40626017"><ele>1974</ele><time>1990-01-01T00:00:00Z</time></trkpt>
<trkpt lat="46.12751465" lon="7.40885010"><ele>1996</ele><time>1990-01-01T00:00:00Z</time></trkpt>
<trkpt lat="46.13018392" lon="7.40993042"><ele>2010</ele><time>1990-01-01T00:00:00Z</time></trkpt>
<trkpt lat="46.12915038" lon="7.41099955"><ele>2053</ele><time>1990-01-01T00:00:00Z</time></trkpt>
<trkpt lat="46.13280437" lon="7.41321005"><ele>2120</ele><time>1990-01-01T00:00:00Z</time></trkpt>
<trkpt lat="46.13391927" lon="7.41235962"><ele>2096</ele><time>1990-01-01T00:00:00Z</time></trkpt>
<trkpt lat="46.13618978" lon="7.41392923"><ele>2161</ele><time>1990-01-01T00:00:00Z</time></trkpt>
<trkpt lat="46.14239096" lon="7.41316935"><ele>2167</ele><time>1990-01-01T00:00:00Z</time></trkpt>
<trkpt lat="46.14443360" lon="7.41554057"><ele>2186</ele><time>1990-01-01T00:00:00Z</time></trkpt>
<trkpt lat="46.14619140" lon="7.41502990"><ele>2192</ele><time>1990-01-01T00:00:00Z</time></trkpt>
<trkpt lat="46.14514160" lon="7.42003988"><ele>2215</ele><time>1990-01-01T00:00:00Z</time></trkpt>
<trkpt lat="46.14085287" lon="7.43604025"><ele>2221</ele><time>1990-01-01T00:00:00Z</time></trkpt>
<trkpt lat="46.13807780" lon="7.43913982"><ele>2188</ele><time>1990-01-01T00:00:00Z</time></trkpt>
<trkpt lat="46.13404135" lon="7.43877970"><ele>2228</ele><time>1990-01-01T00:00:00Z</time></trkpt>
<trkpt lat="46.13260905" lon="7.43999023"><ele>2222</ele><time>1990-01-01T00:00:00Z</time></trkpt>
<trkpt lat="46.13042807" lon="7.44040018"><ele>2242</ele><time>1990-01-01T00:00:00Z</time></trkpt>
<trkpt lat="46.12728678" lon="7.44559022"><ele>2222</ele><time>1990-01-01T00:00:00Z</time></trkpt>
<trkpt lat="46.12805177" lon="7.44856975"><ele>2210</ele><time>1990-01-01T00:00:00Z</time></trkpt>
<trkpt lat="46.12564290" lon="7.45514018"><ele>2115</ele><time>1990-01-01T00:00:00Z</time></trkpt>
<trkpt lat="46.12638347" lon="7.45580037"><ele>2078</ele><time>1990-01-01T00:00:00Z</time></trkpt>
<trkpt lat="46.12373047" lon="7.45703938"><ele>2051</ele><time>1990-01-01T00:00:00Z</time></trkpt>
<trkpt lat="46.12559407" lon="7.45756938"><ele>2048</ele><time>1990-01-01T00:00:00Z</time></trkpt>
<trkpt lat="46.12894694" lon="7.45468953"><ele>2039</ele><time>1990-01-01T00:00:00Z</time></trkpt>
<trkpt lat="46.12784018" lon="7.45669047"><ele>2037</ele><time>1990-01-01T00:00:00Z</time></trkpt>
<trkpt lat="46.12958985" lon="7.45525920"><ele>2004</ele><time>1990-01-01T00:00:00Z</time></trkpt>
<trkpt lat="46.12840983" lon="7.45805970"><ele>1967</ele><time>1990-01-01T00:00:00Z</time></trkpt>
<trkpt lat="46.12603353" lon="7.46011047"><ele>1960</ele><time>1990-01-01T00:00:00Z</time></trkpt>
<trkpt lat="46.12242025" lon="7.46112977"><ele>1917</ele><time>1990-01-01T00:00:00Z</time></trkpt>
<trkpt lat="46.12493490" lon="7.46211038"><ele>1867</ele><time>1990-01-01T00:00:00Z</time></trkpt>
<trkpt lat="46.12253418" lon="7.46378988"><ele>1839</ele><time>1990-01-01T00:00:00Z</time></trkpt>
<trkpt lat="46.12551270" lon="7.46370952"><ele>1827</ele><time>1990-01-01T00:00:00Z</time></trkpt>
<trkpt lat="46.12144368" lon="7.46636963"><ele>1761</ele><time>1990-01-01T00:00:00Z</time></trkpt>
<trkpt lat="46.12041015" lon="7.46756998"><ele>1720</ele><time>1990-01-01T00:00:00Z</time></trkpt>
<trkpt lat="46.12208658" lon="7.46670023"><ele>1728</ele><time>1990-01-01T00:00:00Z</time></trkpt>
<trkpt lat="46.12522788" lon="7.46696980"><ele>1698</ele><time>1990-01-01T00:00:00Z</time></trkpt>
<trkpt lat="46.12226564" lon="7.46831970"><ele>1665</ele><time>1990-01-01T00:00:00Z</time></trkpt>
<trkpt lat="46.12060547" lon="7.46988017"><ele>1638</ele><time>1990-01-01T00:00:00Z</time></trkpt>
<trkpt lat="46.11791992" lon="7.46796977"><ele>1642</ele><time>1990-01-01T00:00:00Z</time></trkpt>
<trkpt lat="46.11780598" lon="7.47746988"><ele>1536</ele><time>1990-01-01T00:00:00Z</time></trkpt>
<trkpt lat="46.11552735" lon="7.48263957"><ele>1513</ele><time>1990-01-01T00:00:00Z</time></trkpt>
<trkpt lat="46.11280925" lon="7.49012960"><ele>1347</ele><time>1990-01-01T00:00:00Z</time></trkpt>
<trkpt lat="46.11339518" lon="7.49081013"><ele>1347</ele><time>1990-01-01T00:00:00Z</time></trkpt>
<trkpt lat="46.11237793" lon="7.49429932"><ele>1354</ele><time>1990-01-01T00:00:00Z</time></trkpt>
<trkpt lat="46.11255697" lon="7.49593098"><ele>1370</ele><time>1990-01-01T00:00:00Z</time></trkpt>
<trkpt lat="46.11626790" lon="7.48955993"><ele>1374</ele><time>1990-01-01T00:00:00Z</time></trkpt>
<trkpt lat="46.11564942" lon="7.49178975"><ele>1395</ele><time>1990-01-01T00:00:00Z</time></trkpt>
<trkpt lat="46.11990560" lon="7.48947042"><ele>1415</ele><time>1990-01-01T00:00:00Z</time></trkpt>
<trkpt lat="46.11722005" lon="7.49407043"><ele>1459</ele><time>1990-01-01T00:00:00Z</time></trkpt>
<trkpt lat="46.12345378" lon="7.49053040"><ele>1544</ele><time>1990-01-01T00:00:00Z</time></trkpt>
<trkpt lat="46.12325847" lon="7.48834025"><ele>1542</ele><time>1990-01-01T00:00:00Z</time></trkpt>
<trkpt lat="46.12388510" lon="7.48704020"><ele>1528</ele><time>1990-01-01T00:00:00Z</time></trkpt>
<trkpt lat="46.12459310" lon="7.49096985"><ele>1598</ele><time>1990-01-01T00:00:00Z</time></trkpt>
<trkpt lat="46.12463378" lon="7.48829957"><ele>1594</ele><time>1990-01-01T00:00:00Z</time></trkpt>
<trkpt lat="46.12923177" lon="7.48237915"><ele>1674</ele><time>1990-01-01T00:00:00Z</time></trkpt>
<trkpt lat="46.12917480" lon="7.48551025"><ele>1729</ele><time>1990-01-01T00:00:00Z</time></trkpt>
<trkpt lat="46.13074546" lon="7.48221943"><ele>1740</ele><time>1990-01-01T00:00:00Z</time></trkpt>
<trkpt lat="46.13388672" lon="7.48212992"><ele>1776</ele><time>1990-01-01T00:00:00Z</time></trkpt>
<trkpt lat="46.14589030" lon="7.47566020"><ele>1720</ele><time>1990-01-01T00:00:00Z</time></trkpt>
<trkpt lat="46.14811198" lon="7.47849935"><ele>1772</ele><time>1990-01-01T00:00:00Z</time></trkpt>
<trkpt lat="46.14855143" lon="7.47501017"><ele>1651</ele><time>1990-01-01T00:00:00Z</time></trkpt>
<trkpt lat="46.15414225" lon="7.46605022"><ele>1640</ele><time>1990-01-01T00:00:00Z</time></trkpt>
<trkpt lat="46.15917968" lon="7.46289063"><ele>1665</ele><time>1990-01-01T00:00:00Z</time></trkpt>
<trkpt lat="46.15722657" lon="7.46758017"><ele>1771</ele><time>1990-01-01T00:00:00Z</time></trkpt>
<trkpt lat="46.16066080" lon="7.46563008"><ele>1822</ele><time>1990-01-01T00:00:00Z</time></trkpt>
<trkpt lat="46.15433757" lon="7.47449952"><ele>1864</ele><time>1990-01-01T00:00:00Z</time></trkpt>
<trkpt lat="46.16499023" lon="7.46967977"><ele>2018</ele><time>1990-01-01T00:00:00Z</time></trkpt>
<trkpt lat="46.15969238" lon="7.47666932"><ele>2118</ele><time>1990-01-01T00:00:00Z</time></trkpt>
<trkpt lat="46.15783693" lon="7.47684022"><ele>2082</ele><time>1990-01-01T00:00:00Z</time></trkpt>
<trkpt lat="46.15502930" lon="7.48410035"><ele>2159</ele><time>1990-01-01T00:00:00Z</time></trkpt>
<trkpt lat="46.15452474" lon="7.48818053"><ele>2184</ele><time>1990-01-01T00:00:00Z</time></trkpt>
<trkpt lat="46.15179851" lon="7.49544067"><ele>2262</ele><time>1990-01-01T00:00:00Z</time></trkpt>
<trkpt lat="46.15175782" lon="7.49844970"><ele>2315</ele><time>1990-01-01T00:00:00Z</time></trkpt>
<trkpt lat="46.15323081" lon="7.49400940"><ele>2292</ele><time>1990-01-01T00:00:00Z</time></trkpt>
<trkpt lat="46.15570475" lon="7.49243978"><ele>2369</ele><time>1990-01-01T00:00:00Z</time></trkpt>
<trkpt lat="46.15428873" lon="7.49525960"><ele>2371</ele><time>1990-01-01T00:00:00Z</time></trkpt>
<trkpt lat="46.15282390" lon="7.50596008"><ele>2469</ele><time>1990-01-01T00:00:00Z</time></trkpt>
<trkpt lat="46.15530598" lon="7.51655985"><ele>2664</ele><time>1990-01-01T00:00:00Z</time></trkpt>
<trkpt lat="46.15425618" lon="7.51716003"><ele>2748</ele><time>1990-01-01T00:00:00Z</time></trkpt>
<trkpt lat="46.15567220" lon="7.51990967"><ele>2779</ele><time>1990-01-01T00:00:00Z</time></trkpt>
<trkpt lat="46.15441080" lon="7.52318928"><ele>2738</ele><time>1990-01-01T00:00:00Z</time></trkpt>
<trkpt lat="46.15544433" lon="7.52767945"><ele>2717</ele><time>1990-01-01T00:00:00Z</time></trkpt>
<trkpt lat="46.15861817" lon="7.53073018"><ele>2683</ele><time>1990-01-01T00:00:00Z</time></trkpt>
<trkpt lat="46.15917968" lon="7.53662008"><ele>2656</ele><time>1990-01-01T00:00:00Z</time></trkpt>
<trkpt lat="46.15783693" lon="7.53249003"><ele>2646</ele><time>1990-01-01T00:00:00Z</time></trkpt>
<trkpt lat="46.15373535" lon="7.53283082"><ele>2644</ele><time>1990-01-01T00:00:00Z</time></trkpt>
<trkpt lat="46.15137532" lon="7.53752950"><ele>2673</ele><time>1990-01-01T00:00:00Z</time></trkpt>
<trkpt lat="46.15205892" lon="7.54030050"><ele>2656</ele><time>1990-01-01T00:00:00Z</time></trkpt>
<trkpt lat="46.14965820" lon="7.54220988"><ele>2682</ele><time>1990-01-01T00:00:00Z</time></trkpt>
<trkpt lat="46.15040690" lon="7.54336038"><ele>2700</ele><time>1990-01-01T00:00:00Z</time></trkpt>
<trkpt lat="46.14930013" lon="7.54511922"><ele>2744</ele><time>1990-01-01T00:00:00Z</time></trkpt>
<trkpt lat="46.14986166" lon="7.54511007"><ele>2744</ele><time>1990-01-01T00:00:00Z</time></trkpt>
<trkpt lat="46.14789225" lon="7.54818013"><ele>2784</ele><time>1990-01-01T00:00:00Z</time></trkpt>
<trkpt lat="46.14748535" lon="7.54794922"><ele>2771</ele><time>1990-01-01T00:00:00Z</time></trkpt>
<trkpt lat="46.14751790" lon="7.55096028"><ele>2737</ele><time>1990-01-01T00:00:00Z</time></trkpt>
<trkpt lat="46.14711100" lon="7.55039978"><ele>2743</ele><time>1990-01-01T00:00:00Z</time></trkpt>
<trkpt lat="46.14705403" lon="7.55178020"><ele>2737</ele><time>1990-01-01T00:00:00Z</time></trkpt>
<trkpt lat="46.14654948" lon="7.55086975"><ele>2718</ele><time>1990-01-01T00:00:00Z</time></trkpt>
<trkpt lat="46.14521485" lon="7.55299988"><ele>2698</ele><time>1990-01-01T00:00:00Z</time></trkpt>
<trkpt lat="46.14537760" lon="7.55391032"><ele>2687</ele><time>1990-01-01T00:00:00Z</time></trkpt>
<trkpt lat="46.14449057" lon="7.55324910"><ele>2674</ele><time>1990-01-01T00:00:00Z</time></trkpt>
<trkpt lat="46.14466960" lon="7.55521037"><ele>2664</ele><time>1990-01-01T00:00:00Z</time></trkpt>
<trkpt lat="46.14385580" lon="7.55499980"><ele>2644</ele><time>1990-01-01T00:00:00Z</time></trkpt>
<trkpt lat="46.14374187" lon="7.55791015"><ele>2614</ele><time>1990-01-01T00:00:00Z</time></trkpt>
<trkpt lat="46.14283040" lon="7.55582988"><ele>2614</ele><time>1990-01-01T00:00:00Z</time></trkpt>
<trkpt lat="46.14149578" lon="7.55900065"><ele>2557</ele><time>1990-01-01T00:00:00Z</time></trkpt>
<trkpt lat="46.14012045" lon="7.55845032"><ele>2560</ele><time>1990-01-01T00:00:00Z</time></trkpt>
<trkpt lat="46.13909505" lon="7.56068013"><ele>2514</ele><time>1990-01-01T00:00:00Z</time></trkpt>
<trkpt lat="46.13774413" lon="7.56094970"><ele>2510</ele><time>1990-01-01T00:00:00Z</time></trkpt>
<trkpt lat="46.13644205" lon="7.56029968"><ele>2554</ele><time>1990-01-01T00:00:00Z</time></trkpt>
<trkpt lat="46.13461100" lon="7.56196085"><ele>2485</ele><time>1990-01-01T00:00:00Z</time></trkpt>
<trkpt lat="46.13273927" lon="7.56074015"><ele>2498</ele><time>1990-01-01T00:00:00Z</time></trkpt>
<trkpt lat="46.13161622" lon="7.56099040"><ele>2475</ele><time>1990-01-01T00:00:00Z</time></trkpt>
<trkpt lat="46.13093262" lon="7.55765992"><ele>2481</ele><time>1990-01-01T00:00:00Z</time></trkpt>
<trkpt lat="46.12997233" lon="7.55882975"><ele>2457</ele><time>1990-01-01T00:00:00Z</time></trkpt>
<trkpt lat="46.13032227" lon="7.56056925"><ele>2432</ele><time>1990-01-01T00:00:00Z</time></trkpt>
<trkpt lat="46.12894693" lon="7.56003012"><ele>2413</ele><time>1990-01-01T00:00:00Z</time></trkpt>
<trkpt lat="46.12896322" lon="7.56106058"><ele>2405</ele><time>1990-01-01T00:00:00Z</time></trkpt>
<trkpt lat="46.13026530" lon="7.56334025"><ele>2365</ele><time>1990-01-01T00:00:00Z</time></trkpt>
<trkpt lat="46.13536784" lon="7.56518962"><ele>2315</ele><time>1990-01-01T00:00:00Z</time></trkpt>
<trkpt lat="46.13425293" lon="7.56567078"><ele>2308</ele><time>1990-01-01T00:00:00Z</time></trkpt>
<trkpt lat="46.13718262" lon="7.56758017"><ele>2236</ele><time>1990-01-01T00:00:00Z</time></trkpt>
<trkpt lat="46.13943685" lon="7.56706035"><ele>2261</ele><time>1990-01-01T00:00:00Z</time></trkpt>
<trkpt lat="46.14030762" lon="7.56726990"><ele>2186</ele><time>1990-01-01T00:00:00Z</time></trkpt>
<trkpt lat="46.13943685" lon="7.56796977"><ele>2194</ele><time>1990-01-01T00:00:00Z</time></trkpt>
<trkpt lat="46.14024253" lon="7.56806947"><ele>2186</ele><time>1990-01-01T00:00:00Z</time></trkpt>
<trkpt lat="46.13960775" lon="7.56843973"><ele>2146</ele><time>1990-01-01T00:00:00Z</time></trkpt>
<trkpt lat="46.14025065" lon="7.56864928"><ele>2141</ele><time>1990-01-01T00:00:00Z</time></trkpt>
<trkpt lat="46.13985188" lon="7.56924032"><ele>2141</ele><time>1990-01-01T00:00:00Z</time></trkpt>
<trkpt lat="46.14034830" lon="7.57026978"><ele>2110</ele><time>1990-01-01T00:00:00Z</time></trkpt>
<trkpt lat="46.14742838" lon="7.56963093"><ele>2042</ele><time>1990-01-01T00:00:00Z</time></trkpt>
<trkpt lat="46.14838053" lon="7.56808980"><ele>2064</ele><time>1990-01-01T00:00:00Z</time></trkpt>
<trkpt lat="46.15030110" lon="7.56724040"><ele>2006</ele><time>1990-01-01T00:00:00Z</time></trkpt>
<trkpt lat="46.15137532" lon="7.56813050"><ele>2002</ele><time>1990-01-01T00:00:00Z</time></trkpt>
<trkpt lat="46.15328777" lon="7.56749980"><ele>1995</ele><time>1990-01-01T00:00:00Z</time></trkpt>
<trkpt lat="46.15544433" lon="7.56582032"><ele>1981</ele><time>1990-01-01T00:00:00Z</time></trkpt>
<trkpt lat="46.15908203" lon="7.56016032"><ele>1940</ele><time>1990-01-01T00:00:00Z</time></trkpt>
<trkpt lat="46.16367188" lon="7.56027018"><ele>1911</ele><time>1990-01-01T00:00:00Z</time></trkpt>
<trkpt lat="46.16515300" lon="7.56254985"><ele>1827</ele><time>1990-01-01T00:00:00Z</time></trkpt>
<trkpt lat="46.17032878" lon="7.56484985"><ele>1798</ele><time>1990-01-01T00:00:00Z</time></trkpt>
<trkpt lat="46.17381998" lon="7.56640015"><ele>1745</ele><time>1990-01-01T00:00:00Z</time></trkpt>
<trkpt lat="46.17635092" lon="7.56888022"><ele>1695</ele><time>1990-01-01T00:00:00Z</time></trkpt>
<trkpt lat="46.17473958" lon="7.56856995"><ele>1712</ele><time>1990-01-01T00:00:00Z</time></trkpt>
<trkpt lat="46.17384441" lon="7.56895040"><ele>1676</ele><time>1990-01-01T00:00:00Z</time></trkpt>
<trkpt lat="46.17287598" lon="7.56850993"><ele>1689</ele><time>1990-01-01T00:00:00Z</time></trkpt>
<trkpt lat="46.17172852" lon="7.56724955"><ele>1679</ele><time>1990-01-01T00:00:00Z</time></trkpt>
<trkpt lat="46.16979980" lon="7.56765035"><ele>1624</ele><time>1990-01-01T00:00:00Z</time></trkpt>
<trkpt lat="46.17218425" lon="7.57048950"><ele>1600</ele><time>1990-01-01T00:00:00Z</time></trkpt>
<trkpt lat="46.17315267" lon="7.57070007"><ele>1616</ele><time>1990-01-01T00:00:00Z</time></trkpt>
<trkpt lat="46.17512207" lon="7.57390035"><ele>1574</ele><time>1990-01-01T00:00:00Z</time></trkpt>
<trkpt lat="46.17826335" lon="7.57473958"><ele>1571</ele><time>1990-01-01T00:00:00Z</time></trkpt>
<trkpt lat="46.17875977" lon="7.57554017"><ele>1583</ele><time>1990-01-01T00:00:00Z</time></trkpt>
</trkseg></trk></gpx>